Location: Winthrop
(48.4780°N, 120.1850°W)
Time: 03:33:35
(UTC-08:00)

Vanguard 1 Rocket - Pass Details

Date: 05 December 2023
Orbit: 654 x 4218 km, 34.3° (Epoch: 24 February)

Event Time Altitude Azimuth Distance (km) Brightness Sun altitude
Rises 05:54:41 0° 242° (WSW) 8,132 11.8 -16.0°
Reaches altitude 10° 06:01:13 10° 237° (WSW) 6,731 11.4 -15.0°
Maximum altitude 06:18:57 42° 176° (S) 3,182 10.3 -12.2°
Drops below altitude 10° 06:28:53 10° 110° (ESE) 3,866 12.2 -10.7°
Sets 06:31:30 0° 103° (ESE) 4,505 13.0 -10.3°
